,,,,,,
,  Onslow South ,,,,,
,,,,,,
Hour Ending,  MW  ,,,,,
,,,,,,
2022-01-01 01:00,521,,,,,
2022-01-01 02:00,499,,,,,
2022-01-01 03:00,474,,,,,
2022-01-01 04:00,451,,,,,
2022-01-01 05:00,435,,,,,
2022-01-01 06:00,434,,,,,
2022-01-01 07:00,443,,,,,
2022-01-01 08:00,473,,,,,
2022-01-01 09:00,467,,,,,
2022-01-01 10:00,473,,,,,
2022-01-01 11:00,504,,,,,
2022-01-01 12:00,510,,,,,
2022-01-01 13:00,493,,,,,
2022-01-01 14:00,460,,,,,
2022-01-01 15:00,432,,,,,
2022-01-01 16:00,475,,,,,
2022-01-01 17:00,475,,,,,
2022-01-01 18:00,447,,,,,
2022-01-01 19:00,414,,,,,
2022-01-01 20:00,430,,,,,
2022-01-01 21:00,417,,,,,
2022-01-01 22:00,436,,,,,
2022-01-01 23:00,419,,,,,
2022-01-01 00:00,460,,,,,
2022-01-02 01:00,452,,,,,
2022-01-02 02:00,349,,,,,
2022-01-02 03:00,343,,,,,
2022-01-02 04:00,336,,,,,
2022-01-02 05:00,349,,,,,
2022-01-02 06:00,382,,,,,
2022-01-02 07:00,400,,,,,
2022-01-02 08:00,388,,,,,
2022-01-02 09:00,407,,,,,
2022-01-02 10:00,422,,,,,
2022-01-02 11:00,460,,,,,
2022-01-02 12:00,511,,,,,
2022-01-02 13:00,549,,,,,
2022-01-02 14:00,540,,,,,
2022-01-02 15:00,531,,,,,
2022-01-02 16:00,506,,,,,
2022-01-02 17:00,485,,,,,
2022-01-02 18:00,505,,,,,
2022-01-02 19:00,481,,,,,
2022-01-02 20:00,475,,,,,
2022-01-02 21:00,460,,,,,
2022-01-02 22:00,429,,,,,
2022-01-02 23:00,384,,,,,
2022-01-02 00:00,436,,,,,
2022-01-03 01:00,429,,,,,
2022-01-03 02:00,359,,,,,
2022-01-03 03:00,370,,,,,
2022-01-03 04:00,371,,,,,
2022-01-03 05:00,368,,,,,
2022-01-03 06:00,449,,,,,
2022-01-03 07:00,540,,,,,
2022-01-03 08:00,611,,,,,
2022-01-03 09:00,684,,,,,
2022-01-03 10:00,660,,,,,
2022-01-03 11:00,664,,,,,
2022-01-03 12:00,692,,,,,
2022-01-03 13:00,701,,,,,
2022-01-03 14:00,705,,,,,
2022-01-03 15:00,703,,,,,
2022-01-03 16:00,709,,,,,
2022-01-03 17:00,734,,,,,
2022-01-03 18:00,754,,,,,
2022-01-03 19:00,754,,,,,
2022-01-03 20:00,730,,,,,
2022-01-03 21:00,698,,,,,
2022-01-03 22:00,674,,,,,
2022-01-03 23:00,652,,,,,
2022-01-03 00:00,606,,,,,
2022-01-04 01:00,608,,,,,
2022-01-04 02:00,605,,,,,
2022-01-04 03:00,599,,,,,
2022-01-04 04:00,586,,,,,
2022-01-04 05:00,585,,,,,
2022-01-04 06:00,622,,,,,
2022-01-04 07:00,698,,,,,
2022-01-04 08:00,817,,,,,
2022-01-04 09:00,834,,,,,
2022-01-04 10:00,815,,,,,
2022-01-04 11:00,855,,,,,
2022-01-04 12:00,842,,,,,
2022-01-04 13:00,824,,,,,
2022-01-04 14:00,811,,,,,
2022-01-04 15:00,798,,,,,
2022-01-04 16:00,793,,,,,
2022-01-04 17:00,842,,,,,
2022-01-04 18:00,851,,,,,
2022-01-04 19:00,833,,,,,
2022-01-04 20:00,808,,,,,
2022-01-04 21:00,752,,,,,
2022-01-04 22:00,689,,,,,
2022-01-04 23:00,661,,,,,
2022-01-04 00:00,746,,,,,
2022-01-05 01:00,735,,,,,
2022-01-05 02:00,588,,,,,
2022-01-05 03:00,578,,,,,
2022-01-05 04:00,564,,,,,
2022-01-05 05:00,548,,,,,
2022-01-05 06:00,563,,,,,
2022-01-05 07:00,608,,,,,
2022-01-05 08:00,636,,,,,
2022-01-05 09:00,635,,,,,
2022-01-05 10:00,638,,,,,
2022-01-05 11:00,625,,,,,
2022-01-05 12:00,611,,,,,
2022-01-05 13:00,598,,,,,
2022-01-05 14:00,580,,,,,
2022-01-05 15:00,564,,,,,
2022-01-05 16:00,553,,,,,
2022-01-05 17:00,567,,,,,
2022-01-05 18:00,608,,,,,
2022-01-05 19:00,563,,,,,
2022-01-05 20:00,539,,,,,
2022-01-05 21:00,521,,,,,
2022-01-05 22:00,510,,,,,
2022-01-05 23:00,491,,,,,
2022-01-05 00:00,577,,,,,
2022-01-06 01:00,567,,,,,
2022-01-06 02:00,423,,,,,
2022-01-06 03:00,425,,,,,
2022-01-06 04:00,428,,,,,
2022-01-06 05:00,457,,,,,
2022-01-06 06:00,481,,,,,
2022-01-06 07:00,508,,,,,
2022-01-06 08:00,511,,,,,
2022-01-06 09:00,547,,,,,
2022-01-06 10:00,600,,,,,
2022-01-06 11:00,624,,,,,
2022-01-06 12:00,588,,,,,
2022-01-06 13:00,567,,,,,
2022-01-06 14:00,552,,,,,
2022-01-06 15:00,586,,,,,
2022-01-06 16:00,662,,,,,
2022-01-06 17:00,714,,,,,
2022-01-06 18:00,814,,,,,
2022-01-06 19:00,795,,,,,
2022-01-06 20:00,783,,,,,
2022-01-06 21:00,770,,,,,
2022-01-06 22:00,732,,,,,
2022-01-06 23:00,679,,,,,
2022-01-06 00:00,595,,,,,
2022-01-07 01:00,599,,,,,
2022-01-07 02:00,615,,,,,
2022-01-07 03:00,593,,,,,
2022-01-07 04:00,583,,,,,
2022-01-07 05:00,584,,,,,
2022-01-07 06:00,602,,,,,
2022-01-07 07:00,646,,,,,
2022-01-07 08:00,690,,,,,
2022-01-07 09:00,733,,,,,
2022-01-07 10:00,761,,,,,
2022-01-07 11:00,787,,,,,
2022-01-07 12:00,770,,,,,
2022-01-07 13:00,759,,,,,
2022-01-07 14:00,740,,,,,
2022-01-07 15:00,663,,,,,
2022-01-07 16:00,541,,,,,
2022-01-07 17:00,520,,,,,
2022-01-07 18:00,576,,,,,
2022-01-07 19:00,581,,,,,
2022-01-07 20:00,595,,,,,
2022-01-07 21:00,661,,,,,
2022-01-07 22:00,633,,,,,
2022-01-07 23:00,590,,,,,
2022-01-07 00:00,646,,,,,
2022-01-08 01:00,639,,,,,
2022-01-08 02:00,542,,,,,
2022-01-08 03:00,518,,,,,
2022-01-08 04:00,524,,,,,
2022-01-08 05:00,549,,,,,
2022-01-08 06:00,561,,,,,
2022-01-08 07:00,597,,,,,
2022-01-08 08:00,643,,,,,
2022-01-08 09:00,687,,,,,
2022-01-08 10:00,727,,,,,
2022-01-08 11:00,739,,,,,
2022-01-08 12:00,740,,,,,
2022-01-08 13:00,733,,,,,
2022-01-08 14:00,730,,,,,
2022-01-08 15:00,714,,,,,
2022-01-08 16:00,739,,,,,
2022-01-08 17:00,849,,,,,
2022-01-08 18:00,880,,,,,
2022-01-08 19:00,880,,,,,
2022-01-08 20:00,862,,,,,
2022-01-08 21:00,863,,,,,
2022-01-08 22:00,862,,,,,
2022-01-08 23:00,834,,,,,
2022-01-08 00:00,709,,,,,
2022-01-09 01:00,716,,,,,
2022-01-09 02:00,769,,,,,
2022-01-09 03:00,770,,,,,
2022-01-09 04:00,761,,,,,
2022-01-09 05:00,727,,,,,
2022-01-09 06:00,690,,,,,
2022-01-09 07:00,691,,,,,
2022-01-09 08:00,700,,,,,
2022-01-09 09:00,737,,,,,
2022-01-09 10:00,753,,,,,
2022-01-09 11:00,755,,,,,
2022-01-09 12:00,747,,,,,
2022-01-09 13:00,752,,,,,
2022-01-09 14:00,735,,,,,
2022-01-09 15:00,704,,,,,
2022-01-09 16:00,697,,,,,
2022-01-09 17:00,728,,,,,
2022-01-09 18:00,751,,,,,
2022-01-09 19:00,698,,,,,
2022-01-09 20:00,651,,,,,
2022-01-09 21:00,659,,,,,
2022-01-09 22:00,596,,,,,
2022-01-09 23:00,529,,,,,
2022-01-09 00:00,712,,,,,
2022-01-10 01:00,694,,,,,
2022-01-10 02:00,468,,,,,
2022-01-10 03:00,475,,,,,
2022-01-10 04:00,481,,,,,
2022-01-10 05:00,479,,,,,
2022-01-10 06:00,455,,,,,
2022-01-10 07:00,535,,,,,
2022-01-10 08:00,590,,,,,
2022-01-10 09:00,648,,,,,
2022-01-10 10:00,658,,,,,
2022-01-10 11:00,658,,,,,
2022-01-10 12:00,666,,,,,
2022-01-10 13:00,687,,,,,
2022-01-10 14:00,694,,,,,
2022-01-10 15:00,712,,,,,
2022-01-10 16:00,747,,,,,
2022-01-10 17:00,812,,,,,
2022-01-10 18:00,837,,,,,
2022-01-10 19:00,830,,,,,
2022-01-10 20:00,722,,,,,
2022-01-10 21:00,643,,,,,
2022-01-10 22:00,625,,,,,
2022-01-10 23:00,560,,,,,
2022-01-10 00:00,629,,,,,
2022-01-11 01:00,622,,,,,
2022-01-11 02:00,535,,,,,
2022-01-11 03:00,555,,,,,
2022-01-11 04:00,582,,,,,
2022-01-11 05:00,593,,,,,
2022-01-11 06:00,649,,,,,
2022-01-11 07:00,738,,,,,
2022-01-11 08:00,823,,,,,
2022-01-11 09:00,844,,,,,
2022-01-11 10:00,845,,,,,
2022-01-11 11:00,821,,,,,
2022-01-11 12:00,865,,,,,
2022-01-11 13:00,838,,,,,
2022-01-11 14:00,817,,,,,
2022-01-11 15:00,811,,,,,
2022-01-11 16:00,813,,,,,
2022-01-11 17:00,851,,,,,
2022-01-11 18:00,881,,,,,
2022-01-11 19:00,873,,,,,
2022-01-11 20:00,891,,,,,
2022-01-11 21:00,884,,,,,
2022-01-11 22:00,831,,,,,
2022-01-11 23:00,802,,,,,
2022-01-11 00:00,769,,,,,
2022-01-12 01:00,771,,,,,
2022-01-12 02:00,762,,,,,
2022-01-12 03:00,736,,,,,
2022-01-12 04:00,739,,,,,
2022-01-12 05:00,739,,,,,
2022-01-12 06:00,828,,,,,
2022-01-12 07:00,847,,,,,
2022-01-12 08:00,841,,,,,
2022-01-12 09:00,840,,,,,
2022-01-12 10:00,836,,,,,
2022-01-12 11:00,795,,,,,
2022-01-12 12:00,819,,,,,
2022-01-12 13:00,807,,,,,
2022-01-12 14:00,812,,,,,
2022-01-12 15:00,827,,,,,
2022-01-12 16:00,806,,,,,
2022-01-12 17:00,794,,,,,
2022-01-12 18:00,781,,,,,
2022-01-12 19:00,734,,,,,
2022-01-12 20:00,701,,,,,
2022-01-12 21:00,654,,,,,
2022-01-12 22:00,598,,,,,
2022-01-12 23:00,530,,,,,
2022-01-12 00:00,765,,,,,
2022-01-13 01:00,749,,,,,
2022-01-13 02:00,578,,,,,
2022-01-13 03:00,564,,,,,
2022-01-13 04:00,558,,,,,
2022-01-13 05:00,571,,,,,
2022-01-13 06:00,611,,,,,
2022-01-13 07:00,666,,,,,
2022-01-13 08:00,744,,,,,
2022-01-13 09:00,740,,,,,
2022-01-13 10:00,716,,,,,
2022-01-13 11:00,714,,,,,
2022-01-13 12:00,701,,,,,
2022-01-13 13:00,690,,,,,
2022-01-13 14:00,654,,,,,
2022-01-13 15:00,641,,,,,
2022-01-13 16:00,648,,,,,
2022-01-13 17:00,668,,,,,
2022-01-13 18:00,660,,,,,
2022-01-13 19:00,623,,,,,
2022-01-13 20:00,622,,,,,
2022-01-13 21:00,641,,,,,
2022-01-13 22:00,608,,,,,
2022-01-13 23:00,581,,,,,
2022-01-13 00:00,642,,,,,
2022-01-14 01:00,634,,,,,
2022-01-14 02:00,526,,,,,
2022-01-14 03:00,505,,,,,
2022-01-14 04:00,494,,,,,
2022-01-14 05:00,509,,,,,
2022-01-14 06:00,536,,,,,
2022-01-14 07:00,576,,,,,
2022-01-14 08:00,646,,,,,
2022-01-14 09:00,698,,,,,
2022-01-14 10:00,692,,,,,
2022-01-14 11:00,715,,,,,
2022-01-14 12:00,729,,,,,
2022-01-14 13:00,709,,,,,
2022-01-14 14:00,657,,,,,
2022-01-14 15:00,614,,,,,
2022-01-14 16:00,607,,,,,
2022-01-14 17:00,587,,,,,
2022-01-14 18:00,606,,,,,
2022-01-14 19:00,613,,,,,
2022-01-14 20:00,628,,,,,
2022-01-14 21:00,641,,,,,
2022-01-14 22:00,662,,,,,
2022-01-14 23:00,635,,,,,
2022-01-14 00:00,614,,,,,
2022-01-15 01:00,615,,,,,
2022-01-15 02:00,595,,,,,
2022-01-15 03:00,589,,,,,
2022-01-15 04:00,595,,,,,
2022-01-15 05:00,600,,,,,
2022-01-15 06:00,621,,,,,
2022-01-15 07:00,647,,,,,
2022-01-15 08:00,671,,,,,
2022-01-15 09:00,701,,,,,
2022-01-15 10:00,700,,,,,
2022-01-15 11:00,736,,,,,
2022-01-15 12:00,732,,,,,
2022-01-15 13:00,733,,,,,
2022-01-15 14:00,746,,,,,
2022-01-15 15:00,798,,,,,
2022-01-15 16:00,763,,,,,
2022-01-15 17:00,798,,,,,
2022-01-15 18:00,794,,,,,
2022-01-15 19:00,789,,,,,
2022-01-15 20:00,762,,,,,
2022-01-15 21:00,736,,,,,
2022-01-15 22:00,709,,,,,
2022-01-15 23:00,704,,,,,
2022-01-15 00:00,701,,,,,
2022-01-16 01:00,699,,,,,
2022-01-16 02:00,655,,,,,
2022-01-16 03:00,657,,,,,
2022-01-16 04:00,676,,,,,
2022-01-16 05:00,671,,,,,
2022-01-16 06:00,675,,,,,
2022-01-16 07:00,703,,,,,
2022-01-16 08:00,744,,,,,
2022-01-16 09:00,743,,,,,
2022-01-16 10:00,686,,,,,
2022-01-16 11:00,686,,,,,
2022-01-16 12:00,689,,,,,
2022-01-16 13:00,675,,,,,
2022-01-16 14:00,651,,,,,
2022-01-16 15:00,675,,,,,
2022-01-16 16:00,694,,,,,
2022-01-16 17:00,661,,,,,
2022-01-16 18:00,648,,,,,
2022-01-16 19:00,669,,,,,
2022-01-16 20:00,658,,,,,
2022-01-16 21:00,656,,,,,
2022-01-16 22:00,674,,,,,
2022-01-16 23:00,574,,,,,
2022-01-16 00:00,673,,,,,
2022-01-17 01:00,670,,,,,
2022-01-17 02:00,696,,,,,
2022-01-17 03:00,598,,,,,
2022-01-17 04:00,550,,,,,
2022-01-17 05:00,543,,,,,
2022-01-17 06:00,557,,,,,
2022-01-17 07:00,574,,,,,
2022-01-17 08:00,610,,,,,
2022-01-17 09:00,592,,,,,
2022-01-17 10:00,581,,,,,
2022-01-17 11:00,593,,,,,
2022-01-17 12:00,641,,,,,
2022-01-17 13:00,665,,,,,
2022-01-17 14:00,684,,,,,
2022-01-17 15:00,703,,,,,
2022-01-17 16:00,697,,,,,
2022-01-17 17:00,675,,,,,
2022-01-17 18:00,679,,,,,
2022-01-17 19:00,709,,,,,
2022-01-17 20:00,647,,,,,
2022-01-17 21:00,578,,,,,
2022-01-17 22:00,522,,,,,
2022-01-17 23:00,477,,,,,
2022-01-17 00:00,620,,,,,
2022-01-18 01:00,603,,,,,
2022-01-18 02:00,431,,,,,
2022-01-18 03:00,416,,,,,
2022-01-18 04:00,410,,,,,
2022-01-18 05:00,384,,,,,
2022-01-18 06:00,418,,,,,
2022-01-18 07:00,483,,,,,
2022-01-18 08:00,521,,,,,
2022-01-18 09:00,575,,,,,
2022-01-18 10:00,584,,,,,
2022-01-18 11:00,562,,,,,
2022-01-18 12:00,571,,,,,
2022-01-18 13:00,540,,,,,
2022-01-18 14:00,497,,,,,
2022-01-18 15:00,496,,,,,
2022-01-18 16:00,524,,,,,
2022-01-18 17:00,531,,,,,
2022-01-18 18:00,564,,,,,
2022-01-18 19:00,600,,,,,
2022-01-18 20:00,619,,,,,
2022-01-18 21:00,577,,,,,
2022-01-18 22:00,571,,,,,
2022-01-18 23:00,491,,,,,
2022-01-18 00:00,512,,,,,
2022-01-19 01:00,508,,,,,
2022-01-19 02:00,436,,,,,
2022-01-19 03:00,444,,,,,
2022-01-19 04:00,459,,,,,
2022-01-19 05:00,473,,,,,
2022-01-19 06:00,502,,,,,
2022-01-19 07:00,597,,,,,
2022-01-19 08:00,640,,,,,
2022-01-19 09:00,623,,,,,
2022-01-19 10:00,613,,,,,
2022-01-19 11:00,625,,,,,
2022-01-19 12:00,689,,,,,
2022-01-19 13:00,633,,,,,
2022-01-19 14:00,623,,,,,
2022-01-19 15:00,559,,,,,
2022-01-19 16:00,481,,,,,
2022-01-19 17:00,492,,,,,
2022-01-19 18:00,521,,,,,
2022-01-19 19:00,480,,,,,
2022-01-19 20:00,480,,,,,
2022-01-19 21:00,522,,,,,
2022-01-19 22:00,537,,,,,
2022-01-19 23:00,486,,,,,
2022-01-19 00:00,537,,,,,
2022-01-20 01:00,527,,,,,
2022-01-20 02:00,379,,,,,
2022-01-20 03:00,381,,,,,
2022-01-20 04:00,384,,,,,
2022-01-20 05:00,405,,,,,
2022-01-20 06:00,440,,,,,
2022-01-20 07:00,474,,,,,
2022-01-20 08:00,502,,,,,
2022-01-20 09:00,574,,,,,
2022-01-20 10:00,539,,,,,
2022-01-20 11:00,535,,,,,
2022-01-20 12:00,538,,,,,
2022-01-20 13:00,575,,,,,
2022-01-20 14:00,582,,,,,
2022-01-20 15:00,626,,,,,
2022-01-20 16:00,641,,,,,
2022-01-20 17:00,686,,,,,
2022-01-20 18:00,661,,,,,
2022-01-20 19:00,645,,,,,
2022-01-20 20:00,639,,,,,
2022-01-20 21:00,580,,,,,
2022-01-20 22:00,560,,,,,
2022-01-20 23:00,578,,,,,
2022-01-20 00:00,536,,,,,
2022-01-21 01:00,538,,,,,
2022-01-21 02:00,547,,,,,
2022-01-21 03:00,485,,,,,
2022-01-21 04:00,473,,,,,
2022-01-21 05:00,477,,,,,
2022-01-21 06:00,532,,,,,
2022-01-21 07:00,603,,,,,
2022-01-21 08:00,643,,,,,
2022-01-21 09:00,634,,,,,
2022-01-21 10:00,688,,,,,
2022-01-21 11:00,713,,,,,
2022-01-21 12:00,706,,,,,
2022-01-21 13:00,695,,,,,
2022-01-21 14:00,691,,,,,
2022-01-21 15:00,675,,,,,
2022-01-21 16:00,687,,,,,
2022-01-21 17:00,700,,,,,
2022-01-21 18:00,714,,,,,
2022-01-21 19:00,722,,,,,
2022-01-21 20:00,712,,,,,
2022-01-21 21:00,708,,,,,
2022-01-21 22:00,711,,,,,
2022-01-21 23:00,714,,,,,
2022-01-21 00:00,643,,,,,
2022-01-22 01:00,649,,,,,
2022-01-22 02:00,723,,,,,
2022-01-22 03:00,726,,,,,
2022-01-22 04:00,729,,,,,
2022-01-22 05:00,732,,,,,
2022-01-22 06:00,735,,,,,
2022-01-22 07:00,738,,,,,
2022-01-22 08:00,741,,,,,
2022-01-22 09:00,744,,,,,
2022-01-22 10:00,747,,,,,
2022-01-22 11:00,751,,,,,
2022-01-22 12:00,754,,,,,
2022-01-22 13:00,757,,,,,
2022-01-22 14:00,758,,,,,
2022-01-22 15:00,758,,,,,
2022-01-22 16:00,720,,,,,
2022-01-22 17:00,716,,,,,
2022-01-22 18:00,695,,,,,
2022-01-22 19:00,681,,,,,
2022-01-22 20:00,657,,,,,
2022-01-22 21:00,632,,,,,
2022-01-22 22:00,658,,,,,
2022-01-22 23:00,659,,,,,
2022-01-22 00:00,719,,,,,
2022-01-23 01:00,714,,,,,
2022-01-23 02:00,669,,,,,
2022-01-23 03:00,675,,,,,
2022-01-23 04:00,678,,,,,
2022-01-23 05:00,677,,,,,
2022-01-23 06:00,663,,,,,
2022-01-23 07:00,677,,,,,
2022-01-23 08:00,692,,,,,
2022-01-23 09:00,653,,,,,
2022-01-23 10:00,637,,,,,
2022-01-23 11:00,638,,,,,
2022-01-23 12:00,613,,,,,
2022-01-23 13:00,627,,,,,
2022-01-23 14:00,629,,,,,
2022-01-23 15:00,631,,,,,
2022-01-23 16:00,646,,,,,
2022-01-23 17:00,693,,,,,
2022-01-23 18:00,749,,,,,
2022-01-23 19:00,787,,,,,
2022-01-23 20:00,751,,,,,
2022-01-23 21:00,711,,,,,
2022-01-23 22:00,671,,,,,
2022-01-23 23:00,618,,,,,
2022-01-23 00:00,672,,,,,
2022-01-24 01:00,665,,,,,
2022-01-24 02:00,564,,,,,
2022-01-24 03:00,548,,,,,
2022-01-24 04:00,542,,,,,
2022-01-24 05:00,560,,,,,
2022-01-24 06:00,600,,,,,
2022-01-24 07:00,694,,,,,
2022-01-24 08:00,659,,,,,
2022-01-24 09:00,629,,,,,
2022-01-24 10:00,670,,,,,
2022-01-24 11:00,658,,,,,
2022-01-24 12:00,636,,,,,
2022-01-24 13:00,666,,,,,
2022-01-24 14:00,693,,,,,
2022-01-24 15:00,735,,,,,
2022-01-24 16:00,738,,,,,
2022-01-24 17:00,713,,,,,
2022-01-24 18:00,759,,,,,
2022-01-24 19:00,738,,,,,
2022-01-24 20:00,724,,,,,
2022-01-24 21:00,740,,,,,
2022-01-24 22:00,722,,,,,
2022-01-24 23:00,714,,,,,
2022-01-24 00:00,664,,,,,
2022-01-25 01:00,665,,,,,
2022-01-25 02:00,683,,,,,
2022-01-25 03:00,686,,,,,
2022-01-25 04:00,688,,,,,
2022-01-25 05:00,692,,,,,
2022-01-25 06:00,681,,,,,
2022-01-25 07:00,715,,,,,
2022-01-25 08:00,753,,,,,
2022-01-25 09:00,739,,,,,
2022-01-25 10:00,762,,,,,
2022-01-25 11:00,756,,,,,
2022-01-25 12:00,742,,,,,
2022-01-25 13:00,757,,,,,
2022-01-25 14:00,760,,,,,
2022-01-25 15:00,752,,,,,
2022-01-25 16:00,742,,,,,
2022-01-25 17:00,719,,,,,
2022-01-25 18:00,723,,,,,
2022-01-25 19:00,720,,,,,
2022-01-25 20:00,739,,,,,
2022-01-25 21:00,700,,,,,
2022-01-25 22:00,657,,,,,
2022-01-25 23:00,578,,,,,
2022-01-25 00:00,714,,,,,
2022-01-26 01:00,701,,,,,
2022-01-26 02:00,573,,,,,
2022-01-26 03:00,586,,,,,
2022-01-26 04:00,585,,,,,
2022-01-26 05:00,615,,,,,
2022-01-26 06:00,662,,,,,
2022-01-26 07:00,671,,,,,
2022-01-26 08:00,705,,,,,
2022-01-26 09:00,655,,,,,
2022-01-26 10:00,575,,,,,
2022-01-26 11:00,541,,,,,
2022-01-26 12:00,547,,,,,
2022-01-26 13:00,573,,,,,
2022-01-26 14:00,553,,,,,
2022-01-26 15:00,555,,,,,
2022-01-26 16:00,603,,,,,
2022-01-26 17:00,667,,,,,
2022-01-26 18:00,738,,,,,
2022-01-26 19:00,748,,,,,
2022-01-26 20:00,744,,,,,
2022-01-26 21:00,740,,,,,
2022-01-26 22:00,740,,,,,
2022-01-26 23:00,680,,,,,
2022-01-26 00:00,636,,,,,
2022-01-27 01:00,637,,,,,
2022-01-27 02:00,658,,,,,
2022-01-27 03:00,674,,,,,
2022-01-27 04:00,695,,,,,
2022-01-27 05:00,710,,,,,
2022-01-27 06:00,751,,,,,
2022-01-27 07:00,745,,,,,
2022-01-27 08:00,722,,,,,
2022-01-27 09:00,738,,,,,
2022-01-27 10:00,736,,,,,
2022-01-27 11:00,678,,,,,
2022-01-27 12:00,638,,,,,
2022-01-27 13:00,610,,,,,
2022-01-27 14:00,605,,,,,
2022-01-27 15:00,620,,,,,
2022-01-27 16:00,727,,,,,
2022-01-27 17:00,781,,,,,
2022-01-27 18:00,766,,,,,
2022-01-27 19:00,710,,,,,
2022-01-27 20:00,738,,,,,
2022-01-27 21:00,790,,,,,
2022-01-27 22:00,847,,,,,
2022-01-27 23:00,787,,,,,
2022-01-27 00:00,712,,,,,
2022-01-28 01:00,713,,,,,
2022-01-28 02:00,678,,,,,
2022-01-28 03:00,670,,,,,
2022-01-28 04:00,671,,,,,
2022-01-28 05:00,643,,,,,
2022-01-28 06:00,651,,,,,
2022-01-28 07:00,693,,,,,
2022-01-28 08:00,672,,,,,
2022-01-28 09:00,676,,,,,
2022-01-28 10:00,662,,,,,
2022-01-28 11:00,682,,,,,
2022-01-28 12:00,764,,,,,
2022-01-28 13:00,802,,,,,
2022-01-28 14:00,769,,,,,
2022-01-28 15:00,751,,,,,
2022-01-28 16:00,730,,,,,
2022-01-28 17:00,694,,,,,
2022-01-28 18:00,670,,,,,
2022-01-28 19:00,669,,,,,
2022-01-28 20:00,649,,,,,
2022-01-28 21:00,634,,,,,
2022-01-28 22:00,639,,,,,
2022-01-28 23:00,623,,,,,
2022-01-28 00:00,687,,,,,
2022-01-29 01:00,678,,,,,
2022-01-29 02:00,527,,,,,
2022-01-29 03:00,502,,,,,
2022-01-29 04:00,488,,,,,
2022-01-29 05:00,488,,,,,
2022-01-29 06:00,509,,,,,
2022-01-29 07:00,533,,,,,
2022-01-29 08:00,567,,,,,
2022-01-29 09:00,574,,,,,
2022-01-29 10:00,562,,,,,
2022-01-29 11:00,605,,,,,
2022-01-29 12:00,676,,,,,
2022-01-29 13:00,690,,,,,
2022-01-29 14:00,764,,,,,
2022-01-29 15:00,742,,,,,
2022-01-29 16:00,711,,,,,
2022-01-29 17:00,706,,,,,
2022-01-29 18:00,740,,,,,
2022-01-29 19:00,745,,,,,
2022-01-29 20:00,734,,,,,
2022-01-29 21:00,712,,,,,
2022-01-29 22:00,691,,,,,
2022-01-29 23:00,643,,,,,
2022-01-29 00:00,628,,,,,
2022-01-30 01:00,624,,,,,
2022-01-30 02:00,504,,,,,
2022-01-30 03:00,490,,,,,
2022-01-30 04:00,511,,,,,
2022-01-30 05:00,570,,,,,
2022-01-30 06:00,575,,,,,
2022-01-30 07:00,594,,,,,
2022-01-30 08:00,611,,,,,
2022-01-30 09:00,633,,,,,
2022-01-30 10:00,655,,,,,
2022-01-30 11:00,709,,,,,
2022-01-30 12:00,749,,,,,
2022-01-30 13:00,730,,,,,
2022-01-30 14:00,692,,,,,
2022-01-30 15:00,668,,,,,
2022-01-30 16:00,733,,,,,
2022-01-30 17:00,780,,,,,
2022-01-30 18:00,835,,,,,
2022-01-30 19:00,788,,,,,
2022-01-30 20:00,802,,,,,
2022-01-30 21:00,788,,,,,
2022-01-30 22:00,745,,,,,
2022-01-30 23:00,685,,,,,
2022-01-30 00:00,670,,,,,
2022-01-31 01:00,667,,,,,
2022-01-31 02:00,635,,,,,
2022-01-31 03:00,639,,,,,
2022-01-31 04:00,647,,,,,
2022-01-31 05:00,640,,,,,
2022-01-31 06:00,694,,,,,
2022-01-31 07:00,784,,,,,
2022-01-31 08:00,818,,,,,
2022-01-31 09:00,830,,,,,
2022-01-31 10:00,823,,,,,
2022-01-31 11:00,837,,,,,
2022-01-31 12:00,798,,,,,
2022-01-31 13:00,758,,,,,
2022-01-31 14:00,739,,,,,
2022-01-31 15:00,706,,,,,
2022-01-31 16:00,696,,,,,
2022-01-31 17:00,742,,,,,
2022-01-31 18:00,801,,,,,
2022-01-31 19:00,795,,,,,
2022-01-31 20:00,780,,,,,
2022-01-31 21:00,784,,,,,
2022-01-31 22:00,769,,,,,
2022-01-31 23:00,737,,,,,
2022-01-31 00:00,743,,,,,
2022-02-01 01:00,645,,,,,
2022-02-01 02:00,690,,,,,
2022-02-01 03:00,697,,,,,
2022-02-01 04:00,701,,,,,
2022-02-01 05:00,707,,,,,
2022-02-01 06:00,744,,,,,
2022-02-01 07:00,793,,,,,
2022-02-01 08:00,811,,,,,
2022-02-01 09:00,788,,,,,
2022-02-01 10:00,808,,,,,
2022-02-01 11:00,772,,,,,
2022-02-01 12:00,656,,,,,
2022-02-01 13:00,604,,,,,
2022-02-01 14:00,622,,,,,
2022-02-01 15:00,665,,,,,
2022-02-01 16:00,679,,,,,
2022-02-01 17:00,670,,,,,
2022-02-01 18:00,647,,,,,
2022-02-01 19:00,600,,,,,
2022-02-01 20:00,591,,,,,
2022-02-01 21:00,606,,,,,
2022-02-01 22:00,640,,,,,
2022-02-01 23:00,658,,,,,
2022-02-01 00:00,687,,,,,
2022-02-02 01:00,685,,,,,
2022-02-02 02:00,692,,,,,
2022-02-02 03:00,697,,,,,
2022-02-02 04:00,712,,,,,
2022-02-02 05:00,717,,,,,
2022-02-02 06:00,733,,,,,
2022-02-02 07:00,747,,,,,
2022-02-02 08:00,756,,,,,
2022-02-02 09:00,776,,,,,
2022-02-02 10:00,791,,,,,
2022-02-02 11:00,786,,,,,
2022-02-02 12:00,805,,,,,
2022-02-02 13:00,772,,,,,
2022-02-02 14:00,708,,,,,
2022-02-02 15:00,694,,,,,
2022-02-02 16:00,748,,,,,
2022-02-02 17:00,808,,,,,
2022-02-02 18:00,817,,,,,
2022-02-02 19:00,799,,,,,
2022-02-02 20:00,743,,,,,
2022-02-02 21:00,725,,,,,
2022-02-02 22:00,683,,,,,
2022-02-02 23:00,587,,,,,
2022-02-02 00:00,738,,,,,
2022-02-03 01:00,718,,,,,
2022-02-03 02:00,444,,,,,
2022-02-03 03:00,441,,,,,
2022-02-03 04:00,408,,,,,
2022-02-03 05:00,384,,,,,
2022-02-03 06:00,414,,,,,
2022-02-03 07:00,470,,,,,
2022-02-03 08:00,562,,,,,
2022-02-03 09:00,578,,,,,
2022-02-03 10:00,575,,,,,
2022-02-03 11:00,595,,,,,
2022-02-03 12:00,615,,,,,
2022-02-03 13:00,624,,,,,
2022-02-03 14:00,634,,,,,
2022-02-03 15:00,610,,,,,
2022-02-03 16:00,621,,,,,
2022-02-03 17:00,665,,,,,
2022-02-03 18:00,694,,,,,
2022-02-03 19:00,676,,,,,
2022-02-03 20:00,651,,,,,
2022-02-03 21:00,656,,,,,
2022-02-03 22:00,661,,,,,
2022-02-03 23:00,654,,,,,
2022-02-03 00:00,569,,,,,
2022-02-04 01:00,573,,,,,
2022-02-04 02:00,551,,,,,
2022-02-04 03:00,494,,,,,
2022-02-04 04:00,457,,,,,
2022-02-04 05:00,466,,,,,
2022-02-04 06:00,503,,,,,
2022-02-04 07:00,596,,,,,
2022-02-04 08:00,675,,,,,
2022-02-04 09:00,701,,,,,
2022-02-04 10:00,685,,,,,
2022-02-04 11:00,660,,,,,
2022-02-04 12:00,641,,,,,
2022-02-04 13:00,630,,,,,
2022-02-04 14:00,618,,,,,
2022-02-04 15:00,622,,,,,
2022-02-04 16:00,639,,,,,
2022-02-04 17:00,640,,,,,
2022-02-04 18:00,656,,,,,
2022-02-04 19:00,632,,,,,
2022-02-04 20:00,589,,,,,
2022-02-04 21:00,567,,,,,
2022-02-04 22:00,567,,,,,
2022-02-04 23:00,541,,,,,
2022-02-04 00:00,597,,,,,
2022-02-05 01:00,587,,,,,
2022-02-05 02:00,475,,,,,
2022-02-05 03:00,466,,,,,
2022-02-05 04:00,476,,,,,
2022-02-05 05:00,495,,,,,
2022-02-05 06:00,499,,,,,
2022-02-05 07:00,521,,,,,
2022-02-05 08:00,550,,,,,
2022-02-05 09:00,555,,,,,
2022-02-05 10:00,574,,,,,
2022-02-05 11:00,599,,,,,
2022-02-05 12:00,611,,,,,
2022-02-05 13:00,677,,,,,
2022-02-05 14:00,694,,,,,
2022-02-05 15:00,694,,,,,
2022-02-05 16:00,683,,,,,
2022-02-05 17:00,676,,,,,
2022-02-05 18:00,710,,,,,
2022-02-05 19:00,719,,,,,
2022-02-05 20:00,723,,,,,
2022-02-05 21:00,711,,,,,
2022-02-05 22:00,715,,,,,
2022-02-05 23:00,715,,,,,
2022-02-05 00:00,609,,,,,
2022-02-06 01:00,615,,,,,
2022-02-06 02:00,681,,,,,
2022-02-06 03:00,687,,,,,
2022-02-06 04:00,707,,,,,
2022-02-06 05:00,701,,,,,
2022-02-06 06:00,711,,,,,
2022-02-06 07:00,756,,,,,
2022-02-06 08:00,813,,,,,
2022-02-06 09:00,833,,,,,
2022-02-06 10:00,863,,,,,
2022-02-06 11:00,879,,,,,
2022-02-06 12:00,885,,,,,
2022-02-06 13:00,834,,,,,
2022-02-06 14:00,829,,,,,
2022-02-06 15:00,789,,,,,
2022-02-06 16:00,754,,,,,
2022-02-06 17:00,770,,,,,
2022-02-06 18:00,774,,,,,
2022-02-06 19:00,824,,,,,
2022-02-06 20:00,813,,,,,
2022-02-06 21:00,798,,,,,
2022-02-06 22:00,810,,,,,